Regional Weather Roundup
Issued by NWS

Home | Current Version | Previous Version | Graphics & Text | Print | Product List | Glossary On
Versions: 1 2 3 4 5 6 7 8 9 10 11 12 13 14 15 16 17 18 19 20 21 22 23 24 25 26 27 28
000
ASUS45 KSLC 231010
RWRUT

UTAH REGIONAL WEATHER ROUNDUP
NATIONAL WEATHER SERVICE SALT LAKE CITY UT
400 AM MDT THU OCT 23 2014

UTZ001>011-023>025-231100-

NORTHERN UTAH

CITY           SKY/WX    TMP DP  RH WIND       PRES   REMARKS
BRIGHAM CITY   PTCLDY    38  31  78 SE3       30.16F
HILL AFB       CLEAR     46  26  45 E15       30.16F
LOGAN          CLEAR     32  28  85 CALM      30.17F
OGDEN          CLEAR     44  28  53 S8        30.15F
PROVO AIRPORT  CLEAR     39  30  70 CALM      30.19S
SALT LAKE CITY PTCLDY    46  33  60 SE9       30.15F
VERNAL         PTCLDY    39  33  79 NW3       30.23R
WENDOVER       PTCLDY    41  28  60 W5        30.15F
HEBER CITY     CLEAR     30  27  86 CALM      30.24F
WEST JORDAN    CLEAR     46  37  71 SE5       30.17S

$$

UTZ012>022-026-027-231100-

SOUTHERN/CENTRAL UTAH

CITY           SKY/WX    TMP DP  RH WIND       PRES   REMARKS
BLANDING       CLEAR     44  32  63 N6        30.30S
BRYCE CANYON   PTCLDY    30  23  75 W10       30.32S WCI  21
CEDAR CITY     PTCLDY    37  28  70 CALM      30.21F
DELTA          PTCLDY    40  29  66 CALM      30.17F
HANKSVILLE       N/A     41  32  70 CALM      30.20S
MILFORD        CLEAR     36  27  69 S6        30.18F WCI  31
MOAB/CYNLANDS  CLEAR     46  32  58 SW5       30.17R
PRICE          CLEAR     43  30  60 N9        30.22F
ST GEORGE      SUNNY     55  30  38 CALM      30.13F

$$

REGIONAL REPORTS     COLORADO/ARIZONA

CITY           SKY/WX    TMP DP  RH WIND       PRES   REMARKS
CRAIG, CO      CLEAR     30  27  88 CALM      30.26F
GRAND JUNCTION CLEAR     44  37  76 E5        30.20S
RIFLE          CLEAR     38  34  85 CALM      30.26S
MONTROSE       CLEAR     41  35  79 S6        30.27R
CORTEZ         CLEAR     35  31  85 CALM      30.26S
PAGE, AZ       CLEAR     55  32  41 CALM      30.17R
GRAND CANYON   PTCLDY    30  24  78 CALM      30.30R HAZE
KINGMAN        CLEAR     52  39  61 SE8       30.11F
FLAGSTAFF      PTCLDY    34  29  82 CALM      30.30F HAZE

$$

REGIONAL REPORTS    NEVADA/IDAHO/WYOMING

CITY           SKY/WX    TMP DP  RH WIND       PRES   REMARKS
LAS VEGAS, NV  PTCLDY    64  30  27 S7        30.00F
ELY            CLEAR     44  20  38 S15       30.20F
ELKO           MOCLDY    42  20  41 E7        30.11S
POCATELLO, ID  PTCLDY    50  24  36 NE7       30.10F
BURLEY         CLOUDY    49  31  49 N6        30.06F
EVANSTON, WY   CLEAR     41  22  46 S5        30.25S
ROCK SPRINGS   MOCLDY    36  22  56 S6        30.23F WCI  31

$$



USA.gov is the U.S. government's official web portal to all federal, state and local government web resources and services.